Volver al catálogo

STARLINK-36206

ActivoComunicacionesVLEO
NORAD 66930·PAYLOAD·🇺🇸 United States

Lanzado Dec 7, 2025 desde Vandenberg Space Force Base

Loading…

Próximos Pases (próximas 24 horas)

TLE

ActualizadoSource: CelesTrak SupGP

Época: Sep 14, 2026, 23:24 UTC

1 66930C 25286F   26257.97548611 -.00038559  00000+0 -11387-2 0  2570
2 66930  53.1591 195.7791 0001442  91.2254 355.4918 15.34423729    19

Sigue STARLINK-36206 en tiempo real con AllMySat

Download on the App Store